Location: Unnamed
(25.2826°S, 57.6099°W)
Time: 00:03:39
(UTC-04:00)

BlueWalker 3 - Pass Details

Date: 24 January 2026
Orbit: 451 x 460 km, 53.2° (Epoch: 18 February)

Event Time Altitude Azimuth Distance (km) Brightness Sun altitude
Exits shadow 04:31:12 17° 298° (WNW) 1,254 3.3 -11.0°
Maximum altitude 04:33:46 46° 228° (SW) 636 2.3 -10.5°
Drops below altitude 10° 04:37:18 10° 154° (SSE) 1,625 5.4 -9.8°
Sets 04:39:31 0° 147° (SSE) 2,507 6.6 -9.3°
